Year,Month,Day,Hour,Minute,Value (Times are PST for temperature in C)
2008,06,23,00,00,12.50
2008,06,23,00,01,12.40
2008,06,23,00,02,12.40
2008,06,23,00,03,12.30
2008,06,23,00,04,12.20
2008,06,23,00,05,12.20
2008,06,23,00,06,12.10
2008,06,23,00,07,12.10
2008,06,23,00,08,12.00
2008,06,23,00,09,12.00
2008,06,23,00,10,11.90
2008,06,23,00,11,11.90
2008,06,23,00,12,11.80
2008,06,23,00,13,11.80
2008,06,23,00,14,11.70
2008,06,23,00,15,11.70
2008,06,23,00,16,11.70
2008,06,23,00,17,11.70
2008,06,23,00,18,11.60
2008,06,23,00,19,11.60
2008,06,23,00,20,11.60
2008,06,23,00,21,11.60
2008,06,23,00,22,11.50
2008,06,23,00,23,11.50
2008,06,23,00,24,11.50
2008,06,23,00,25,11.40
2008,06,23,00,26,11.40
2008,06,23,00,27,11.40
2008,06,23,00,28,11.40
2008,06,23,00,29,11.40
2008,06,23,00,30,11.40
2008,06,23,00,31,11.40
2008,06,23,00,32,11.40
2008,06,23,00,33,11.40
2008,06,23,00,34,11.30
2008,06,23,00,35,11.30
2008,06,23,00,36,11.30
2008,06,23,00,37,11.30
2008,06,23,00,38,11.30
2008,06,23,00,39,11.30
2008,06,23,00,40,11.20
2008,06,23,00,41,11.20
2008,06,23,00,42,11.20
2008,06,23,00,43,11.10
2008,06,23,00,44,11.10
2008,06,23,00,45,11.10
2008,06,23,00,46,11.10
2008,06,23,00,47,11.10
2008,06,23,00,48,11.00
2008,06,23,00,49,11.00
2008,06,23,00,50,11.10
2008,06,23,00,51,11.10
2008,06,23,00,52,11.10
2008,06,23,00,53,11.10
2008,06,23,00,54,11.00
2008,06,23,00,55,11.00
2008,06,23,00,56,11.00
2008,06,23,00,57,10.90
2008,06,23,00,58,10.90
2008,06,23,00,59,10.90
2008,06,23,01,00,10.90
2008,06,23,01,01,10.90
2008,06,23,01,02,10.90
2008,06,23,01,03,10.90
2008,06,23,01,04,10.90
2008,06,23,01,05,11.00
2008,06,23,01,06,10.90
2008,06,23,01,07,10.90
2008,06,23,01,08,10.90
2008,06,23,01,09,10.90
2008,06,23,01,10,10.90
2008,06,23,01,11,10.90
2008,06,23,01,12,10.90
2008,06,23,01,13,10.80
2008,06,23,01,14,10.80
2008,06,23,01,15,10.80
2008,06,23,01,16,10.80
2008,06,23,01,17,10.70
2008,06,23,01,18,10.70
2008,06,23,01,19,10.70
2008,06,23,01,20,10.70
2008,06,23,01,21,10.70
2008,06,23,01,22,10.70
2008,06,23,01,23,10.70
2008,06,23,01,24,10.60
2008,06,23,01,25,10.60
2008,06,23,01,26,10.60
2008,06,23,01,27,10.60
2008,06,23,01,28,10.60
2008,06,23,01,29,10.60
2008,06,23,01,30,10.60
2008,06,23,01,31,10.60
2008,06,23,01,32,10.60
2008,06,23,01,33,10.60
2008,06,23,01,34,10.60
2008,06,23,01,35,10.60
2008,06,23,01,36,10.60
2008,06,23,01,37,10.60
2008,06,23,01,38,10.60
2008,06,23,01,39,10.60
2008,06,23,01,40,10.60
2008,06,23,01,41,10.60
2008,06,23,01,42,10.60
2008,06,23,01,43,10.60
2008,06,23,01,44,10.60
2008,06,23,01,45,10.60
2008,06,23,01,46,10.60
2008,06,23,01,47,10.60
2008,06,23,01,48,10.60
2008,06,23,01,49,10.50
2008,06,23,01,50,10.50
2008,06,23,01,51,10.50
2008,06,23,01,52,10.40
2008,06,23,01,53,10.40
2008,06,23,01,54,10.30
2008,06,23,01,55,10.30
2008,06,23,01,56,10.30
2008,06,23,01,57,10.20
2008,06,23,01,58,10.20
2008,06,23,01,59,10.20
2008,06,23,02,00,10.20
2008,06,23,02,01,10.10
2008,06,23,02,02,10.10
2008,06,23,02,03,10.10
2008,06,23,02,04,10.10
2008,06,23,02,05,10.10
2008,06,23,02,06,10.00
2008,06,23,02,07,10.00
2008,06,23,02,08,10.00
2008,06,23,02,09,10.00
2008,06,23,02,10,10.00
2008,06,23,02,11,10.00
2008,06,23,02,12,10.00
2008,06,23,02,13,10.00
2008,06,23,02,14,10.00
2008,06,23,02,15,10.10
2008,06,23,02,16,10.00
2008,06,23,02,17,10.00
2008,06,23,02,18,10.00
2008,06,23,02,19,10.00
2008,06,23,02,20,9.90
2008,06,23,02,21,9.90
2008,06,23,02,22,9.90
2008,06,23,02,23,9.90
2008,06,23,02,24,9.90
2008,06,23,02,25,9.90
2008,06,23,02,26,9.90
2008,06,23,02,27,9.90
2008,06,23,02,28,9.80
2008,06,23,02,29,9.80
2008,06,23,02,30,9.80
2008,06,23,02,31,9.80
2008,06,23,02,32,9.80
2008,06,23,02,33,9.80
2008,06,23,02,34,9.80
2008,06,23,02,35,9.90
2008,06,23,02,36,9.90
2008,06,23,02,37,9.90
2008,06,23,02,38,9.90
2008,06,23,02,39,10.00
2008,06,23,02,40,10.00
2008,06,23,02,41,10.10
2008,06,23,02,42,10.10
2008,06,23,02,43,10.10
2008,06,23,02,44,10.10
2008,06,23,02,45,10.10
2008,06,23,02,46,10.10
2008,06,23,02,47,10.10
2008,06,23,02,48,10.10
2008,06,23,02,49,10.10
2008,06,23,02,50,10.10
2008,06,23,02,51,10.00
2008,06,23,02,52,10.00
2008,06,23,02,53,10.00
2008,06,23,02,54,10.00
2008,06,23,02,55,9.90
2008,06,23,02,56,9.90
2008,06,23,02,57,9.90
2008,06,23,02,58,9.80
2008,06,23,02,59,9.80
2008,06,23,03,00,9.80
2008,06,23,03,01,9.80
2008,06,23,03,02,9.80
2008,06,23,03,03,9.70
2008,06,23,03,04,9.70
2008,06,23,03,05,9.70
2008,06,23,03,06,9.70
2008,06,23,03,07,9.60
2008,06,23,03,08,9.60
2008,06,23,03,09,9.60
2008,06,23,03,10,9.60
2008,06,23,03,11,9.50
2008,06,23,03,12,9.50
2008,06,23,03,13,9.50
2008,06,23,03,14,9.40
2008,06,23,03,15,9.40
2008,06,23,03,16,9.40
2008,06,23,03,17,9.40
2008,06,23,03,18,9.30
2008,06,23,03,19,9.30
2008,06,23,03,20,9.30
2008,06,23,03,21,9.30
2008,06,23,03,22,9.20
2008,06,23,03,23,9.20
2008,06,23,03,24,9.20
2008,06,23,03,25,9.20
2008,06,23,03,26,9.20
2008,06,23,03,27,9.20
2008,06,23,03,28,9.20
2008,06,23,03,29,9.10
2008,06,23,03,30,9.10
2008,06,23,03,31,9.10
2008,06,23,03,32,9.20
2008,06,23,03,33,9.20
2008,06,23,03,34,9.30
2008,06,23,03,35,9.30
2008,06,23,03,36,9.30
2008,06,23,03,37,9.30
2008,06,23,03,38,9.30
2008,06,23,03,39,9.30
2008,06,23,03,40,9.30
2008,06,23,03,41,9.20
2008,06,23,03,42,9.20
2008,06,23,03,43,9.20
2008,06,23,03,44,9.20
2008,06,23,03,45,9.10
2008,06,23,03,46,9.10
2008,06,23,03,47,9.00
2008,06,23,03,48,9.00
2008,06,23,03,49,8.90
2008,06,23,03,50,8.90
2008,06,23,03,51,8.90
2008,06,23,03,52,8.80
2008,06,23,03,53,8.80
2008,06,23,03,54,8.80
2008,06,23,03,55,8.80
2008,06,23,03,56,8.70
2008,06,23,03,57,8.70
2008,06,23,03,58,8.70
2008,06,23,03,59,8.70
2008,06,23,04,00,8.70
2008,06,23,04,01,8.60
2008,06,23,04,02,8.60
2008,06,23,04,03,8.60
2008,06,23,04,04,8.60
2008,06,23,04,05,8.60
2008,06,23,04,06,8.60
2008,06,23,04,07,8.60
2008,06,23,04,08,8.60
2008,06,23,04,09,8.60
2008,06,23,04,10,8.60
2008,06,23,04,11,8.70
2008,06,23,04,12,8.70
2008,06,23,04,13,8.70
2008,06,23,04,14,8.80
2008,06,23,04,15,8.80
2008,06,23,04,16,8.80
2008,06,23,04,17,8.80
2008,06,23,04,18,8.80
2008,06,23,04,19,8.80
2008,06,23,04,20,8.80
2008,06,23,04,21,8.80
2008,06,23,04,22,8.80
2008,06,23,04,23,8.70
2008,06,23,04,24,8.70
2008,06,23,04,25,8.60
2008,06,23,04,26,8.60
2008,06,23,04,27,8.60
2008,06,23,04,28,8.50
2008,06,23,04,29,8.50
2008,06,23,04,30,8.50
2008,06,23,04,31,8.40
2008,06,23,04,32,8.40
2008,06,23,04,33,8.40
2008,06,23,04,34,8.40
2008,06,23,04,35,8.40
2008,06,23,04,36,8.30
2008,06,23,04,37,8.30
2008,06,23,04,38,8.30
2008,06,23,04,39,8.30
2008,06,23,04,40,8.20
2008,06,23,04,41,8.20
2008,06,23,04,42,8.20
2008,06,23,04,43,8.20
2008,06,23,04,44,8.20
2008,06,23,04,45,8.20
2008,06,23,04,46,8.20
2008,06,23,04,47,8.20
2008,06,23,04,48,8.20
2008,06,23,04,49,8.20
2008,06,23,04,50,8.10
2008,06,23,04,51,8.10
2008,06,23,04,52,8.10
2008,06,23,04,53,8.10
2008,06,23,04,54,8.10
2008,06,23,04,55,8.10
2008,06,23,04,56,8.10
2008,06,23,04,57,8.10
2008,06,23,04,58,8.10
2008,06,23,04,59,8.10
2008,06,23,05,00,8.10
2008,06,23,05,01,8.10
2008,06,23,05,02,8.10
2008,06,23,05,03,8.10
2008,06,23,05,04,8.10
2008,06,23,05,05,8.10
2008,06,23,05,06,8.10
2008,06,23,05,07,8.10
2008,06,23,05,08,8.10
2008,06,23,05,09,8.10
2008,06,23,05,10,8.10
2008,06,23,05,11,8.10
2008,06,23,05,12,8.10
2008,06,23,05,13,8.10
2008,06,23,05,14,8.10
2008,06,23,05,15,8.10
2008,06,23,05,16,8.00
2008,06,23,05,17,8.00
2008,06,23,05,18,8.00
2008,06,23,05,19,8.00
2008,06,23,05,20,8.00
2008,06,23,05,21,7.90
2008,06,23,05,22,7.90
2008,06,23,05,23,7.90
2008,06,23,05,24,7.90
2008,06,23,05,25,7.90
2008,06,23,05,26,7.90
2008,06,23,05,27,7.90
2008,06,23,05,28,7.90
2008,06,23,05,29,7.90
2008,06,23,05,30,7.90
2008,06,23,05,31,7.90
2008,06,23,05,32,7.90
2008,06,23,05,33,7.90
2008,06,23,05,34,7.90
2008,06,23,05,35,7.90
2008,06,23,05,36,7.90
2008,06,23,05,37,7.90
2008,06,23,05,38,7.90
2008,06,23,05,39,7.90
2008,06,23,05,40,7.90
2008,06,23,05,41,8.00
2008,06,23,05,42,8.00
2008,06,23,05,43,8.00
2008,06,23,05,44,8.00
2008,06,23,05,45,8.00
2008,06,23,05,46,8.10
2008,06,23,05,47,8.10
2008,06,23,05,48,8.10
2008,06,23,05,49,8.10
2008,06,23,05,50,8.10
2008,06,23,05,51,8.10
2008,06,23,05,52,8.20
2008,06,23,05,53,8.20
2008,06,23,05,54,8.20
2008,06,23,05,55,8.20
2008,06,23,05,56,8.20
2008,06,23,05,57,8.30
2008,06,23,05,58,8.30
2008,06,23,05,59,8.30
2008,06,23,06,00,8.30
2008,06,23,06,01,8.30
2008,06,23,06,02,8.40
2008,06,23,06,03,8.40
2008,06,23,06,04,8.40
2008,06,23,06,05,8.40
2008,06,23,06,06,8.50
2008,06,23,06,07,8.50
2008,06,23,06,08,8.60
2008,06,23,06,09,8.60
2008,06,23,06,10,8.70
2008,06,23,06,11,8.70
2008,06,23,06,12,8.80
2008,06,23,06,13,8.80
2008,06,23,06,14,8.80
2008,06,23,06,15,8.90
2008,06,23,06,16,8.90
2008,06,23,06,17,8.90
2008,06,23,06,18,8.90
2008,06,23,06,19,8.90
2008,06,23,06,20,8.90
2008,06,23,06,21,8.90
2008,06,23,06,22,8.90
2008,06,23,06,23,9.00
2008,06,23,06,24,9.00
2008,06,23,06,25,9.00
2008,06,23,06,26,9.00
2008,06,23,06,27,9.00
2008,06,23,06,28,9.00
2008,06,23,06,29,9.10
2008,06,23,06,30,9.10
2008,06,23,06,31,9.10
2008,06,23,06,32,9.10
2008,06,23,06,33,9.10
2008,06,23,06,34,9.10
2008,06,23,06,35,9.20
2008,06,23,06,36,9.20
2008,06,23,06,37,9.20
2008,06,23,06,38,9.20
2008,06,23,06,39,9.30
2008,06,23,06,40,9.30
2008,06,23,06,41,9.30
2008,06,23,06,42,9.40
2008,06,23,06,43,9.50
2008,06,23,06,44,9.50
2008,06,23,06,45,9.60
2008,06,23,06,46,9.60
2008,06,23,06,47,9.70
2008,06,23,06,48,9.80
2008,06,23,06,49,9.80
2008,06,23,06,50,9.90
2008,06,23,06,51,10.00
2008,06,23,06,52,10.10
2008,06,23,06,53,10.20
2008,06,23,06,54,10.20
2008,06,23,06,55,10.30
2008,06,23,06,56,10.40
2008,06,23,06,57,10.50
2008,06,23,06,58,10.60
2008,06,23,06,59,10.70
2008,06,23,07,00,10.80
2008,06,23,07,01,10.90
2008,06,23,07,02,11.00
2008,06,23,07,03,11.10
2008,06,23,07,04,11.20
2008,06,23,07,05,11.30
2008,06,23,07,06,11.30
2008,06,23,07,07,11.40
2008,06,23,07,08,11.50
2008,06,23,07,09,11.60
2008,06,23,07,10,11.60
2008,06,23,07,11,11.70
2008,06,23,07,12,11.70
2008,06,23,07,13,11.80
2008,06,23,07,14,11.90
2008,06,23,07,15,12.00
2008,06,23,07,16,12.10
2008,06,23,07,17,12.20
2008,06,23,07,18,12.30
2008,06,23,07,19,12.30
2008,06,23,07,20,12.40
2008,06,23,07,21,12.60
2008,06,23,07,22,12.70
2008,06,23,07,23,12.80
2008,06,23,07,24,12.90
2008,06,23,07,25,13.00
2008,06,23,07,26,13.00
2008,06,23,07,27,13.10
2008,06,23,07,28,13.20
2008,06,23,07,29,13.20
2008,06,23,07,30,13.20
2008,06,23,07,31,13.20
2008,06,23,07,32,13.20
2008,06,23,07,33,13.20
2008,06,23,07,34,13.20
2008,06,23,07,35,13.20
2008,06,23,07,36,13.20
2008,06,23,07,37,13.20
2008,06,23,07,38,13.10
2008,06,23,07,39,13.10
2008,06,23,07,40,13.10
2008,06,23,07,41,13.10
2008,06,23,07,42,13.00
2008,06,23,07,43,13.00
2008,06,23,07,44,13.00
2008,06,23,07,45,12.90
2008,06,23,07,46,12.90
2008,06,23,07,47,12.90
2008,06,23,07,48,12.90
2008,06,23,07,49,12.90
2008,06,23,07,50,12.90
2008,06,23,07,51,12.90
2008,06,23,07,52,13.00
2008,06,23,07,53,13.00
2008,06,23,07,54,13.00
2008,06,23,07,55,13.00
2008,06,23,07,56,13.00
2008,06,23,07,57,13.00
2008,06,23,07,58,13.00
2008,06,23,07,59,13.00
2008,06,23,08,00,13.10
2008,06,23,08,01,13.10
2008,06,23,08,02,13.10
2008,06,23,08,03,13.10
2008,06,23,08,04,13.10
2008,06,23,08,05,13.10
2008,06,23,08,06,13.10
2008,06,23,08,07,13.10
2008,06,23,08,08,13.00
2008,06,23,08,09,13.00
2008,06,23,08,10,13.00
2008,06,23,08,11,13.00
2008,06,23,08,12,13.00
2008,06,23,08,13,13.10
2008,06,23,08,14,13.10
2008,06,23,08,15,13.10
2008,06,23,08,16,13.10
2008,06,23,08,17,13.10
2008,06,23,08,18,13.10
2008,06,23,08,19,13.20
2008,06,23,08,20,13.20
2008,06,23,08,21,13.30
2008,06,23,08,22,13.30
2008,06,23,08,23,13.40
2008,06,23,08,24,13.40
2008,06,23,08,25,13.40
2008,06,23,08,26,13.40
2008,06,23,08,27,13.40
2008,06,23,08,28,13.30
2008,06,23,08,29,13.40
2008,06,23,08,30,13.40
2008,06,23,08,31,13.40
2008,06,23,08,32,13.40
2008,06,23,08,33,13.40
2008,06,23,08,34,13.40
2008,06,23,08,35,13.50
2008,06,23,08,36,13.50
2008,06,23,08,37,13.50
2008,06,23,08,38,13.60
2008,06,23,08,39,13.60
2008,06,23,08,40,13.70
2008,06,23,08,41,13.70
2008,06,23,08,42,13.80
2008,06,23,08,43,13.80
2008,06,23,08,44,13.90
2008,06,23,08,45,14.00
2008,06,23,08,46,14.10
2008,06,23,08,47,14.10
2008,06,23,08,48,14.20
2008,06,23,08,49,14.10
2008,06,23,08,50,14.10
2008,06,23,08,51,14.10
2008,06,23,08,52,14.20
2008,06,23,08,53,14.20
2008,06,23,08,54,14.30
2008,06,23,08,55,14.30
2008,06,23,08,56,14.30
2008,06,23,08,57,14.40
2008,06,23,08,58,14.50
2008,06,23,08,59,14.50
2008,06,23,09,00,14.60
2008,06,23,09,01,14.60
2008,06,23,09,02,14.70
2008,06,23,09,03,14.70
2008,06,23,09,04,14.80
2008,06,23,09,05,14.90
2008,06,23,09,06,15.00
2008,06,23,09,07,15.00
2008,06,23,09,08,15.00
2008,06,23,09,09,14.90
2008,06,23,09,10,14.80
2008,06,23,09,11,14.80
2008,06,23,09,12,14.80
2008,06,23,09,13,14.80
2008,06,23,09,14,14.80
2008,06,23,09,15,14.80
2008,06,23,09,16,14.70
2008,06,23,09,17,14.70
2008,06,23,09,18,14.70
2008,06,23,09,19,14.60
2008,06,23,09,20,14.60
2008,06,23,09,21,14.50
2008,06,23,09,22,14.50
2008,06,23,09,23,14.40
2008,06,23,09,24,14.30
2008,06,23,09,25,14.20
2008,06,23,09,26,14.20
2008,06,23,09,27,14.20
2008,06,23,09,28,14.30
2008,06,23,09,29,14.30
2008,06,23,09,30,14.40
2008,06,23,09,31,14.50
2008,06,23,09,32,14.60
2008,06,23,09,33,14.70
2008,06,23,09,34,14.80
2008,06,23,09,35,14.90
2008,06,23,09,36,15.00
2008,06,23,09,37,15.00
2008,06,23,09,38,14.80
2008,06,23,09,39,14.70
2008,06,23,09,40,14.70
2008,06,23,09,41,14.70
2008,06,23,09,42,14.70
2008,06,23,09,43,14.70
2008,06,23,09,44,14.70
2008,06,23,09,45,14.80
2008,06,23,09,46,15.00
2008,06,23,09,47,15.00
2008,06,23,09,48,15.00
2008,06,23,09,49,15.10
2008,06,23,09,50,15.10
2008,06,23,09,51,15.20
2008,06,23,09,52,15.30
2008,06,23,09,53,15.40
2008,06,23,09,54,15.40
2008,06,23,09,55,15.50
2008,06,23,09,56,15.60
2008,06,23,09,57,15.50
2008,06,23,09,58,15.50
2008,06,23,09,59,15.40
2008,06,23,10,00,15.40
2008,06,23,10,01,15.40
2008,06,23,10,02,15.40
2008,06,23,10,03,15.30
2008,06,23,10,04,15.20
2008,06,23,10,05,15.10
2008,06,23,10,06,15.00
2008,06,23,10,07,15.00
2008,06,23,10,08,15.00
2008,06,23,10,09,15.00
2008,06,23,10,10,15.00
2008,06,23,10,11,15.00
2008,06,23,10,12,15.10
2008,06,23,10,13,15.20
2008,06,23,10,14,15.20
2008,06,23,10,15,15.10
2008,06,23,10,16,15.10
2008,06,23,10,17,15.20
2008,06,23,10,18,15.20
2008,06,23,10,19,15.30
2008,06,23,10,20,15.30
2008,06,23,10,21,15.30
2008,06,23,10,22,15.40
2008,06,23,10,23,15.40
2008,06,23,10,24,15.50
2008,06,23,10,25,15.50
2008,06,23,10,26,15.50
2008,06,23,10,27,15.50
2008,06,23,10,28,15.50
2008,06,23,10,29,15.40
2008,06,23,10,30,15.30
2008,06,23,10,31,15.30
2008,06,23,10,32,15.20
2008,06,23,10,33,15.10
2008,06,23,10,34,15.10
2008,06,23,10,35,15.10
2008,06,23,10,36,15.10
2008,06,23,10,37,15.00
2008,06,23,10,38,15.00
2008,06,23,10,39,15.00
2008,06,23,10,40,15.00
2008,06,23,10,41,15.00
2008,06,23,10,42,15.00
2008,06,23,10,43,15.00
2008,06,23,10,44,15.00
2008,06,23,10,45,15.10
2008,06,23,10,46,15.20
2008,06,23,10,47,15.20
2008,06,23,10,48,15.20
2008,06,23,10,49,15.20
2008,06,23,10,50,15.20
2008,06,23,10,51,15.20
2008,06,23,10,52,15.20
2008,06,23,10,53,15.10
2008,06,23,10,54,15.10
2008,06,23,10,55,15.10
2008,06,23,10,56,15.20
2008,06,23,10,57,15.30
2008,06,23,10,58,15.30
2008,06,23,10,59,15.30
2008,06,23,11,00,15.30
2008,06,23,11,01,15.20
2008,06,23,11,02,15.10
2008,06,23,11,03,15.10
2008,06,23,11,04,15.10
2008,06,23,11,05,15.00
2008,06,23,11,06,15.00
2008,06,23,11,07,15.00
2008,06,23,11,08,15.00
2008,06,23,11,09,15.00
2008,06,23,11,10,15.00
2008,06,23,11,11,15.00
2008,06,23,11,12,15.00
2008,06,23,11,13,14.90
2008,06,23,11,14,14.80
2008,06,23,11,15,14.60
2008,06,23,11,16,14.50
2008,06,23,11,17,14.40
2008,06,23,11,18,14.40
2008,06,23,11,19,14.40
2008,06,23,11,20,14.40
2008,06,23,11,21,14.50
2008,06,23,11,22,14.50
2008,06,23,11,23,14.60
2008,06,23,11,24,14.60
2008,06,23,11,25,14.70
2008,06,23,11,26,14.70
2008,06,23,11,27,14.70
2008,06,23,11,28,14.70
2008,06,23,11,29,14.70
2008,06,23,11,30,14.70
2008,06,23,11,31,14.70
2008,06,23,11,32,14.70
2008,06,23,11,33,14.70
2008,06,23,11,34,14.70
2008,06,23,11,35,14.70
2008,06,23,11,36,14.70
2008,06,23,11,37,14.70
2008,06,23,11,38,14.70
2008,06,23,11,39,14.70
2008,06,23,11,40,14.70
2008,06,23,11,41,14.70
2008,06,23,11,42,14.70
2008,06,23,11,43,14.70
2008,06,23,11,44,14.70
2008,06,23,11,45,14.70
2008,06,23,11,46,14.70
2008,06,23,11,47,14.80
2008,06,23,11,48,14.80
2008,06,23,11,49,14.90
2008,06,23,11,50,14.90
2008,06,23,11,51,14.90
2008,06,23,11,52,14.90
2008,06,23,11,53,14.90
2008,06,23,11,54,14.90
2008,06,23,11,55,14.90
2008,06,23,11,56,14.80
2008,06,23,11,57,14.80
2008,06,23,11,58,14.90
2008,06,23,11,59,15.00
2008,06,23,12,00,15.00
2008,06,23,12,01,15.00
2008,06,23,12,02,15.00
2008,06,23,12,03,15.00
2008,06,23,12,04,15.00
2008,06,23,12,05,14.90
2008,06,23,12,06,14.80
2008,06,23,12,07,14.80
2008,06,23,12,08,14.80
2008,06,23,12,09,14.80
2008,06,23,12,10,14.80
2008,06,23,12,11,14.80
2008,06,23,12,12,14.70
2008,06,23,12,13,14.70
2008,06,23,12,14,14.70
2008,06,23,12,15,14.70
2008,06,23,12,16,14.80
2008,06,23,12,17,14.90
2008,06,23,12,18,15.00
2008,06,23,12,19,15.00
2008,06,23,12,20,15.00
2008,06,23,12,21,15.00
2008,06,23,12,22,15.20
2008,06,23,12,23,15.30
2008,06,23,12,24,15.30
2008,06,23,12,25,15.40
2008,06,23,12,26,15.50
2008,06,23,12,27,15.50
2008,06,23,12,28,15.50
2008,06,23,12,29,15.60
2008,06,23,12,30,15.50
2008,06,23,12,31,15.40
2008,06,23,12,32,15.50
2008,06,23,12,33,15.60
2008,06,23,12,34,15.70
2008,06,23,12,35,15.80
2008,06,23,12,36,15.70
2008,06,23,12,37,15.70
2008,06,23,12,38,15.70
2008,06,23,12,39,15.70
2008,06,23,12,40,15.70
2008,06,23,12,41,15.70
2008,06,23,12,42,15.70
2008,06,23,12,43,15.80
2008,06,23,12,44,15.80
2008,06,23,12,45,15.80
2008,06,23,12,46,15.70
2008,06,23,12,47,15.70
2008,06,23,12,48,15.80
2008,06,23,12,49,15.80
2008,06,23,12,50,15.80
2008,06,23,12,51,15.80
2008,06,23,12,52,15.70
2008,06,23,12,53,15.70
2008,06,23,12,54,15.70
2008,06,23,12,55,15.70
2008,06,23,12,56,15.80
2008,06,23,12,57,16.00
2008,06,23,12,58,16.10
2008,06,23,12,59,16.30
2008,06,23,13,00,16.30
2008,06,23,13,01,16.30
2008,06,23,13,02,16.30
2008,06,23,13,03,16.30
2008,06,23,13,04,16.30
2008,06,23,13,05,16.40
2008,06,23,13,06,16.40
2008,06,23,13,07,16.50
2008,06,23,13,08,16.60
2008,06,23,13,09,16.60
2008,06,23,13,10,16.60
2008,06,23,13,11,16.50
2008,06,23,13,12,16.40
2008,06,23,13,13,16.30
2008,06,23,13,14,16.30
2008,06,23,13,15,16.30
2008,06,23,13,16,16.30
2008,06,23,13,17,16.30
2008,06,23,13,18,16.30
2008,06,23,13,19,16.30
2008,06,23,13,20,16.30
2008,06,23,13,21,16.20
2008,06,23,13,22,16.20
2008,06,23,13,23,16.20
2008,06,23,13,24,16.10
2008,06,23,13,25,16.10
2008,06,23,13,26,16.10
2008,06,23,13,27,16.20
2008,06,23,13,28,16.20
2008,06,23,13,29,16.30
2008,06,23,13,30,16.30
2008,06,23,13,31,16.30
2008,06,23,13,32,16.40
2008,06,23,13,33,16.40
2008,06,23,13,34,16.40
2008,06,23,13,35,16.40
2008,06,23,13,36,16.50
2008,06,23,13,37,16.60
2008,06,23,13,38,16.60
2008,06,23,13,39,16.60
2008,06,23,13,40,16.60
2008,06,23,13,41,16.60
2008,06,23,13,42,16.60
2008,06,23,13,43,16.60
2008,06,23,13,44,16.70
2008,06,23,13,45,16.70
2008,06,23,13,46,16.80
2008,06,23,13,47,16.80
2008,06,23,13,48,16.80
2008,06,23,13,49,16.80
2008,06,23,13,50,16.80
2008,06,23,13,51,16.80
2008,06,23,13,52,16.80
2008,06,23,13,53,16.80
2008,06,23,13,54,16.90
2008,06,23,13,55,17.00
2008,06,23,13,56,17.10
2008,06,23,13,57,17.20
2008,06,23,13,58,17.10
2008,06,23,13,59,17.10
2008,06,23,14,00,17.10
2008,06,23,14,01,17.10
2008,06,23,14,02,17.10
2008,06,23,14,03,17.20
2008,06,23,14,04,17.20
2008,06,23,14,05,17.20
2008,06,23,14,06,17.30
2008,06,23,14,07,17.20
2008,06,23,14,08,17.20
2008,06,23,14,09,17.20
2008,06,23,14,10,17.30
2008,06,23,14,11,17.30
2008,06,23,14,12,17.30
2008,06,23,14,13,17.30
2008,06,23,14,14,17.20
2008,06,23,14,15,17.10
2008,06,23,14,16,17.10
2008,06,23,14,17,17.10
2008,06,23,14,18,17.10
2008,06,23,14,19,17.10
2008,06,23,14,20,17.10
2008,06,23,14,21,17.00
2008,06,23,14,22,17.00
2008,06,23,14,23,17.00
2008,06,23,14,24,16.90
2008,06,23,14,25,16.90
2008,06,23,14,26,16.90
2008,06,23,14,27,17.00
2008,06,23,14,28,17.00
2008,06,23,14,29,17.00
2008,06,23,14,30,16.90
2008,06,23,14,31,16.80
2008,06,23,14,32,16.80
2008,06,23,14,33,16.80
2008,06,23,14,34,16.80
2008,06,23,14,35,16.80
2008,06,23,14,36,16.80
2008,06,23,14,37,16.80
2008,06,23,14,38,16.80
2008,06,23,14,39,16.90
2008,06,23,14,40,16.90
2008,06,23,14,41,17.00
2008,06,23,14,42,17.10
2008,06,23,14,43,17.20
2008,06,23,14,44,17.20
2008,06,23,14,45,17.30
2008,06,23,14,46,17.30
2008,06,23,14,47,17.40
2008,06,23,14,48,17.40
2008,06,23,14,49,17.40
2008,06,23,14,50,17.40
2008,06,23,14,51,17.40
2008,06,23,14,52,17.50
2008,06,23,14,53,17.50
2008,06,23,14,54,17.60
2008,06,23,14,55,17.70
2008,06,23,14,56,17.70
2008,06,23,14,57,17.60
2008,06,23,14,58,17.60
2008,06,23,14,59,17.50
2008,06,23,15,00,17.50
2008,06,23,15,01,17.40
2008,06,23,15,02,17.30
2008,06,23,15,03,17.40
2008,06,23,15,04,17.50
2008,06,23,15,05,17.60
2008,06,23,15,06,17.80
2008,06,23,15,07,17.90
2008,06,23,15,08,17.90
2008,06,23,15,09,17.90
2008,06,23,15,10,17.90
2008,06,23,15,11,17.90
2008,06,23,15,12,18.00
2008,06,23,15,13,17.90
2008,06,23,15,14,17.70
2008,06,23,15,15,17.70
2008,06,23,15,16,17.70
2008,06,23,15,17,17.70
2008,06,23,15,18,17.70
2008,06,23,15,19,17.80
2008,06,23,15,20,17.80
2008,06,23,15,21,17.80
2008,06,23,15,22,17.80
2008,06,23,15,23,17.80
2008,06,23,15,24,17.80
2008,06,23,15,25,17.70
2008,06,23,15,26,17.80
2008,06,23,15,27,17.80
2008,06,23,15,28,17.90
2008,06,23,15,29,18.00
2008,06,23,15,30,18.00
2008,06,23,15,31,18.10
2008,06,23,15,32,18.20
2008,06,23,15,33,18.30
2008,06,23,15,34,18.50
2008,06,23,15,35,18.60
2008,06,23,15,36,18.70
2008,06,23,15,37,18.70
2008,06,23,15,38,18.80
2008,06,23,15,39,18.70
2008,06,23,15,40,18.70
2008,06,23,15,41,18.80
2008,06,23,15,42,18.80
2008,06,23,15,43,18.80
2008,06,23,15,44,18.90
2008,06,23,15,45,19.00
2008,06,23,15,46,19.10
2008,06,23,15,47,19.10
2008,06,23,15,48,19.10
2008,06,23,15,49,19.00
2008,06,23,15,50,19.00
2008,06,23,15,51,18.90
2008,06,23,15,52,19.00
2008,06,23,15,53,19.00
2008,06,23,15,54,18.90
2008,06,23,15,55,18.90
2008,06,23,15,56,18.80
2008,06,23,15,57,18.80
2008,06,23,15,58,18.80
2008,06,23,15,59,18.80
2008,06,23,16,00,18.90
2008,06,23,16,01,18.90
2008,06,23,16,02,18.90
2008,06,23,16,03,18.90
2008,06,23,16,04,19.00
2008,06,23,16,05,18.90
2008,06,23,16,06,18.90
2008,06,23,16,07,18.90
2008,06,23,16,08,18.90
2008,06,23,16,09,18.90
2008,06,23,16,10,18.80
2008,06,23,16,11,18.80
2008,06,23,16,12,18.80
2008,06,23,16,13,18.80
2008,06,23,16,14,18.90
2008,06,23,16,15,18.90
2008,06,23,16,16,19.00
2008,06,23,16,17,19.10
2008,06,23,16,18,19.10
2008,06,23,16,19,19.20
2008,06,23,16,20,19.20
2008,06,23,16,21,19.20
2008,06,23,16,22,19.20
2008,06,23,16,23,19.20
2008,06,23,16,24,19.20
2008,06,23,16,25,19.10
2008,06,23,16,26,19.10
2008,06,23,16,27,19.10
2008,06,23,16,28,19.20
2008,06,23,16,29,19.40
2008,06,23,16,30,19.50
2008,06,23,16,31,19.60
2008,06,23,16,32,19.60
2008,06,23,16,33,19.70
2008,06,23,16,34,19.70
2008,06,23,16,35,19.60
2008,06,23,16,36,19.60
2008,06,23,16,37,19.60
2008,06,23,16,38,19.70
2008,06,23,16,39,19.70
2008,06,23,16,40,19.60
2008,06,23,16,41,19.60
2008,06,23,16,42,19.60
2008,06,23,16,43,19.50
2008,06,23,16,44,19.30
2008,06,23,16,45,19.30
2008,06,23,16,46,19.20
2008,06,23,16,47,19.20
2008,06,23,16,48,19.20
2008,06,23,16,49,19.10
2008,06,23,16,50,19.10
2008,06,23,16,51,19.10
2008,06,23,16,52,19.10
2008,06,23,16,53,19.10
2008,06,23,16,54,19.10
2008,06,23,16,55,19.10
2008,06,23,16,56,19.10
2008,06,23,16,57,19.10
2008,06,23,16,58,19.10
2008,06,23,16,59,19.10
2008,06,23,17,00,19.10
2008,06,23,17,01,19.20
2008,06,23,17,02,19.10
2008,06,23,17,03,19.10
2008,06,23,17,04,19.20
2008,06,23,17,05,19.30
2008,06,23,17,06,19.40
2008,06,23,17,07,19.40
2008,06,23,17,08,19.50
2008,06,23,17,09,19.60
2008,06,23,17,10,19.70
2008,06,23,17,11,19.90
2008,06,23,17,12,19.90
2008,06,23,17,13,20.00
2008,06,23,17,14,20.00
2008,06,23,17,15,20.10
2008,06,23,17,16,20.20
2008,06,23,17,17,20.30
2008,06,23,17,18,20.40
2008,06,23,17,19,20.30
2008,06,23,17,20,20.30
2008,06,23,17,21,20.30
2008,06,23,17,22,20.30
2008,06,23,17,23,20.30
2008,06,23,17,24,20.30
2008,06,23,17,25,20.30
2008,06,23,17,26,20.20
2008,06,23,17,27,20.20
2008,06,23,17,28,20.20
2008,06,23,17,29,20.10
2008,06,23,17,30,20.10